ETH478 FNLU-DAAT

Flight info

Callsign ETH478
Flight time N/A
Altitude 40000
Route VNA UR526 LIKAD UY339 MESIN UG861 DLA UA604 TMS
Aircraft A359/H-SDE2E3GHIJ3J4J5LM1ORWXY/LB1D1

Departure

Time 2026-04-24 10:56
Airport Quatro de Fevereiro International Airport (FNLU)

Arrival

Time N/A
Airport Aguenar – Hadj Bey Akhamok Airport (DAAT)
Time Latitude Longitude Altitude Speed Heading
2026-04-24 10:38 -8.84906 13.23705 250 ft 0 kts 332°
2026-04-24 10:52 -8.84892 13.23692 250 ft 10 kts 313°
2026-04-24 10:53 -8.84885 13.23630 251 ft 10 kts 245°
2026-04-24 10:53 -8.84915 13.23558 252 ft 12 kts 246°
2026-04-24 10:53 -8.84970 13.23506 252 ft 11 kts 187°
2026-04-24 10:53 -8.85042 13.23536 251 ft 12 kts 154°
2026-04-24 10:54 -8.85149 13.23588 250 ft 24 kts 144°
2026-04-24 10:54 -8.85269 13.23703 254 ft 22 kts 136°
2026-04-24 10:54 -8.85379 13.23794 258 ft 20 kts 154°
2026-04-24 10:54 -8.85434 13.23781 258 ft 8 kts 218°
2026-04-24 10:55 -8.85500 13.23711 258 ft 6 kts 226°
2026-04-24 10:55 -8.85502 13.23710 258 ft 0 kts 226°
2026-04-24 10:55 -8.85626 13.23578 259 ft 72 kts 226°
2026-04-24 10:55 -8.86186 13.22980 252 ft 159 kts 226°
2026-04-24 10:56 -8.87036 13.22082 809 ft 174 kts 223°
2026-04-24 10:56 -8.87832 13.21222 1395 ft 166 kts 225°
2026-04-24 10:56 -8.88267 13.20109 1527 ft 186 kts 271°
2026-04-24 10:56 -8.87688 13.18908 1675 ft 208 kts 318°
2026-04-24 10:57 -8.86312 13.18403 1946 ft 221 kts
2026-04-24 10:57 -8.84906 13.18976 2295 ft 224 kts 43°
2026-04-24 10:57 -8.84216 13.20355 2695 ft 224 kts 84°
2026-04-24 10:57 -8.84573 13.21856 3123 ft 226 kts 120°
2026-04-24 10:58 -8.85156 13.23394 3263 ft 247 kts 95°
2026-04-24 10:58 -8.84745 13.25119 3542 ft 263 kts 58°
2026-04-24 10:58 -8.83358 13.26312 4088 ft 267 kts 23°
2026-04-24 10:58 -8.81518 13.26624 4694 ft 270 kts 359°
2026-04-24 10:59 -8.79682 13.26300 5251 ft 274 kts 344°
2026-04-24 10:59 -8.77924 13.25527 5796 ft 278 kts 332°
2026-04-24 10:59 -8.76351 13.24363 6324 ft 284 kts 319°
2026-04-24 10:59 -8.75005 13.22889 6833 ft 287 kts 312°
2026-04-24 11:00 -8.73720 13.21337 7359 ft 289 kts 314°
2026-04-24 11:00 -8.72223 13.19971 7908 ft 289 kts 327°
2026-04-24 11:00 -8.70502 13.18922 8464 ft 289 kts 334°
2026-04-24 11:00 -8.68698 13.18023 9032 ft 290 kts 338°
2026-04-24 11:01 -8.66841 13.17210 9578 ft 291 kts 340°
2026-04-24 11:01 -8.64958 13.16438 10094 ft 293 kts 341°
2026-04-24 11:01 -8.63018 13.15661 10347 ft 306 kts 341°
2026-04-24 11:01 -8.60994 13.14849 10521 ft 320 kts 341°
2026-04-24 11:02 -8.58915 13.14005 10722 ft 332 kts 340°
2026-04-24 11:02 -8.56722 13.13101 10888 ft 345 kts 340°
2026-04-24 11:02 -8.54467 13.12164 11076 ft 356 kts 340°
2026-04-24 11:02 -8.52154 13.11197 11342 ft 363 kts 339°
2026-04-24 11:03 -8.49807 13.10212 11706 ft 367 kts 339°
2026-04-24 11:03 -8.47439 13.09218 12061 ft 371 kts 339°
2026-04-24 11:03 -8.45046 13.08215 12433 ft 373 kts 339°
2026-04-24 11:03 -8.42639 13.07208 12820 ft 376 kts 339°
2026-04-24 11:04 -8.40210 13.06193 13176 ft 379 kts 339°
2026-04-24 11:04 -8.37769 13.05173 13545 ft 382 kts 339°
2026-04-24 11:04 -8.35302 13.04143 13883 ft 384 kts 339°
2026-04-24 11:04 -8.32855 13.03122 14205 ft 386 kts 339°
2026-04-24 11:05 -8.30365 13.02082 14532 ft 388 kts 339°
2026-04-24 11:05 -8.27856 13.01035 14865 ft 391 kts 339°
2026-04-24 11:05 -8.25334 12.99983 15202 ft 393 kts 339°
2026-04-24 11:05 -8.22801 12.98926 15516 ft 395 kts 339°
2026-04-24 11:06 -8.20248 12.97861 15864 ft 397 kts 339°
2026-04-24 11:06 -8.17687 12.96793 16198 ft 399 kts 339°
2026-04-24 11:06 -8.15111 12.95718 16513 ft 401 kts 339°
2026-04-24 11:06 -8.12556 12.94653 16849 ft 403 kts 339°
2026-04-24 11:07 -8.07335 12.92476 17504 ft 408 kts 339°
2026-04-24 11:07 -8.04704 12.91380 17811 ft 410 kts 339°
2026-04-24 11:07 -8.02049 12.90273 18119 ft 413 kts 339°
2026-04-24 11:08 -7.99379 12.89161 18397 ft 415 kts 339°
2026-04-24 11:08 -7.96703 12.88046 18663 ft 417 kts 339°
2026-04-24 11:08 -7.94013 12.86926 18942 ft 419 kts 338°
2026-04-24 11:08 -7.91315 12.85802 19221 ft 420 kts 338°
2026-04-24 11:09 -7.88606 12.84673 19487 ft 422 kts 338°
2026-04-24 11:09 -7.85887 12.83542 19753 ft 424 kts 338°
2026-04-24 11:09 -7.83157 12.82405 20031 ft 425 kts 338°
2026-04-24 11:09 -7.80408 12.81260 20287 ft 427 kts 338°
2026-04-24 11:10 -7.77692 12.80130 20538 ft 429 kts 338°
2026-04-24 11:10 -7.74924 12.78978 20795 ft 431 kts 338°
2026-04-24 11:10 -7.72141 12.77820 21052 ft 432 kts 338°
2026-04-24 11:10 -7.69355 12.76662 21301 ft 434 kts 338°
2026-04-24 11:11 -7.66553 12.75496 21539 ft 436 kts 338°
2026-04-24 11:11 -7.63741 12.74326 21794 ft 437 kts 338°
2026-04-24 11:11 -7.60921 12.73153 22043 ft 439 kts 338°
2026-04-24 11:11 -7.58090 12.71977 22257 ft 441 kts 338°
2026-04-24 11:12 -7.55281 12.70808 22493 ft 442 kts 338°
2026-04-24 11:12 -7.52427 12.69622 22741 ft 444 kts 338°
2026-04-24 11:12 -7.49566 12.68433 22941 ft 446 kts 338°
2026-04-24 11:12 -7.46694 12.67239 23167 ft 447 kts 338°
2026-04-24 11:13 -7.43810 12.66041 23382 ft 449 kts 338°
2026-04-24 11:13 -7.40914 12.64838 23573 ft 450 kts 338°
2026-04-24 11:13 -7.38007 12.63631 23713 ft 453 kts 338°
2026-04-24 11:13 -7.35087 12.62418 23898 ft 454 kts 338°
2026-04-24 11:14 -7.32156 12.61201 24097 ft 455 kts 338°
2026-04-24 11:14 -7.29225 12.59984 24267 ft 456 kts 338°
2026-04-24 11:14 -7.26326 12.58781 24457 ft 457 kts 338°
2026-04-24 11:14 -7.23377 12.57557 24636 ft 458 kts 338°
2026-04-24 11:15 -7.20416 12.56328 24809 ft 459 kts 338°
2026-04-24 11:15 -7.17450 12.55097 24980 ft 460 kts 338°
2026-04-24 11:15 -7.14486 12.53867 25158 ft 461 kts 338°
2026-04-24 11:15 -7.11518 12.52636 25338 ft 462 kts 338°
2026-04-24 11:16 -7.08529 12.51396 25514 ft 463 kts 338°
2026-04-24 11:16 -7.05545 12.50159 25683 ft 465 kts 338°
2026-04-24 11:16 -7.02553 12.48918 25866 ft 466 kts 339°
2026-04-24 11:16 -6.99590 12.47690 26046 ft 467 kts 339°
2026-04-24 11:17 -6.96583 12.46443 26225 ft 468 kts 339°
2026-04-24 11:17 -6.93568 12.45193 26405 ft 469 kts 339°
2026-04-24 11:17 -6.90551 12.43941 26606 ft 470 kts 339°
2026-04-24 11:17 -6.87524 12.42685 26778 ft 471 kts 339°
2026-04-24 11:18 -6.84477 12.41421 26957 ft 472 kts 339°
2026-04-24 11:18 -6.81431 12.40157 27143 ft 473 kts 339°
2026-04-24 11:18 -6.78379 12.38892 27375 ft 474 kts 339°
2026-04-24 11:18 -6.75324 12.37625 27558 ft 475 kts 339°
2026-04-24 11:19 -6.72258 12.36354 27743 ft 476 kts 339°
2026-04-24 11:19 -6.69227 12.35098 27934 ft 478 kts 339°
2026-04-24 11:19 -6.66146 12.33822 28126 ft 479 kts 339°
2026-04-24 11:19 -6.63058 12.32542 28305 ft 480 kts 339°
2026-04-24 11:20 -6.59966 12.31261 28499 ft 482 kts 339°
2026-04-24 11:20 -6.56860 12.29974 28686 ft 483 kts 339°
2026-04-24 11:20 -6.53745 12.28684 28866 ft 484 kts 339°
2026-04-24 11:20 -6.50621 12.27390 29056 ft 486 kts 339°
2026-04-24 11:21 -6.47484 12.26091 29235 ft 487 kts 339°
2026-04-24 11:21 -6.44385 12.24808 29428 ft 488 kts 339°
2026-04-24 11:21 -6.41238 12.23506 29605 ft 490 kts 339°
2026-04-24 11:21 -6.38077 12.22197 29807 ft 491 kts 339°
2026-04-24 11:22 -6.34912 12.20887 29982 ft 492 kts 339°
2026-04-24 11:22 -6.31735 12.19573 30158 ft 494 kts 338°
2026-04-24 11:22 -6.28555 12.18258 30346 ft 494 kts 338°
2026-04-24 11:22 -6.25370 12.16940 30527 ft 495 kts 338°
2026-04-24 11:23 -6.22180 12.15620 30692 ft 497 kts 338°
2026-04-24 11:23 -6.19006 12.14307 30859 ft 498 kts 338°
2026-04-24 11:23 -6.15789 12.12977 31038 ft 500 kts 338°
2026-04-24 11:23 -6.12566 12.11644 31223 ft 501 kts 338°
2026-04-24 11:24 -6.09341 12.10311 31391 ft 502 kts 338°
2026-04-24 11:24 -6.06099 12.08971 31565 ft 503 kts 338°
2026-04-24 11:24 -6.02850 12.07628 31740 ft 504 kts 338°
2026-04-24 11:24 -5.99639 12.06301 31885 ft 506 kts 338°
2026-04-24 11:25 -5.96371 12.04951 32039 ft 507 kts 338°
2026-04-24 11:25 -5.93092 12.03596 32239 ft 508 kts 338°
2026-04-24 11:25 -5.89824 12.02246 32431 ft 508 kts 338°
2026-04-24 11:25 -5.86542 12.00890 32577 ft 509 kts 338°
2026-04-24 11:26 -5.81088 11.98638 32814 ft 511 kts 338°
2026-04-24 11:26 -5.77790 11.97277 32952 ft 512 kts 338°
2026-04-24 11:26 -5.74487 11.95913 33115 ft 513 kts 338°
2026-04-24 11:27 -5.70108 11.94105 33287 ft 515 kts 338°
2026-04-24 11:27 -5.67864 11.93179 33384 ft 515 kts 338°
2026-04-24 11:27 -5.64549 11.91811 33581 ft 515 kts 338°
2026-04-24 11:27 -5.61239 11.90445 33829 ft 514 kts 338°
2026-04-24 11:28 -5.57931 11.89080 34039 ft 513 kts 338°
2026-04-24 11:28 -5.54671 11.87735 34277 ft 512 kts 338°
2026-04-24 11:28 -5.51374 11.86375 34495 ft 511 kts 338°
2026-04-24 11:28 -5.48093 11.85022 34716 ft 510 kts 338°
2026-04-24 11:29 -5.44811 11.83668 34944 ft 509 kts 338°
2026-04-24 11:29 -5.41539 11.82319 35188 ft 508 kts 338°
2026-04-24 11:29 -5.38262 11.80968 35421 ft 507 kts 338°
2026-04-24 11:29 -5.34999 11.79622 35654 ft 507 kts 338°
2026-04-24 11:30 -5.31740 11.78279 35887 ft 506 kts 338°
2026-04-24 11:30 -5.28523 11.76953 36110 ft 505 kts 338°
2026-04-24 11:30 -5.25266 11.75611 36339 ft 505 kts 338°
2026-04-24 11:30 -5.22020 11.74273 36573 ft 504 kts 338°
2026-04-24 11:31 -5.18772 11.72935 36829 ft 503 kts 338°
2026-04-24 11:31 -5.15531 11.71619 37073 ft 502 kts 340°
2026-04-24 11:31 -5.12183 11.70612 37294 ft 501 kts 348°
2026-04-24 11:31 -5.08741 11.70079 37525 ft 499 kts 354°
2026-04-24 11:32 -5.04152 11.69651 37806 ft 499 kts 356°
2026-04-24 11:32 -5.01857 11.69482 37955 ft 498 kts 356°
2026-04-24 11:32 -4.98402 11.69255 38172 ft 498 kts 357°
2026-04-24 11:32 -4.94941 11.69039 38384 ft 497 kts 357°
2026-04-24 11:33 -4.91492 11.68822 38594 ft 496 kts 357°
2026-04-24 11:33 -4.88048 11.68600 38768 ft 496 kts 356°
2026-04-24 11:33 -4.84606 11.68371 38948 ft 495 kts 357°
2026-04-24 11:33 -4.81161 11.68138 39071 ft 496 kts 356°
2026-04-24 11:34 -4.77717 11.67902 39218 ft 496 kts 356°
2026-04-24 11:34 -4.74306 11.67668 39376 ft 495 kts 357°
2026-04-24 11:34 -4.70871 11.67431 39530 ft 495 kts 356°
2026-04-24 11:34 -4.67433 11.67194 39666 ft 495 kts 356°
2026-04-24 11:35 -4.63984 11.66957 39820 ft 494 kts 356°
2026-04-24 11:35 -4.60545 11.66720 39894 ft 495 kts 356°
2026-04-24 11:35 -4.53682 11.66249 39898 ft 494 kts 356°
2026-04-24 11:36 -4.46871 11.65781 39892 ft 494 kts 357°
2026-04-24 11:36 -4.39991 11.65309 39892 ft 496 kts 357°
2026-04-24 11:37 -4.33096 11.64837 39889 ft 496 kts 357°
2026-04-24 11:37 -4.26206 11.64360 39888 ft 496 kts 357°
2026-04-24 11:38 -4.19354 11.63892 39901 ft 496 kts 357°
2026-04-24 11:38 -4.12452 11.63422 39890 ft 496 kts 357°
2026-04-24 11:39 -4.05555 11.62950 39889 ft 496 kts 357°
2026-04-24 11:39 -3.98668 11.62478 39902 ft 496 kts 357°
2026-04-24 11:40 -3.91814 11.62009 39891 ft 496 kts 357°
2026-04-24 11:40 -3.84926 11.61538 39892 ft 496 kts 357°
2026-04-24 11:41 -3.78032 11.61066 39887 ft 496 kts 357°
2026-04-24 11:41 -3.71147 11.60595 39902 ft 496 kts 357°
2026-04-24 11:42 -3.64261 11.59859 39896 ft 498 kts 348°
2026-04-24 11:42 -3.57489 11.58346 39902 ft 499 kts 347°
2026-04-24 11:43 -3.50783 11.56706 39902 ft 499 kts 347°
2026-04-24 11:43 -3.44030 11.55038 39904 ft 499 kts 347°
2026-04-24 11:44 -3.37275 11.53383 39903 ft 499 kts 347°
2026-04-24 11:44 -3.30511 11.51736 39904 ft 500 kts 347°
2026-04-24 11:45 -3.23776 11.50098 39904 ft 500 kts 347°
2026-04-24 11:45 -3.17011 11.48453 39906 ft 500 kts 347°
2026-04-24 11:46 -3.10245 11.46807 39911 ft 500 kts 347°
2026-04-24 11:46 -3.03474 11.45160 39911 ft 500 kts 347°
2026-04-24 11:47 -2.96699 11.43512 39913 ft 500 kts 347°
2026-04-24 11:47 -2.89976 11.41877 39914 ft 500 kts 347°
2026-04-24 11:48 -2.83206 11.40231 39915 ft 500 kts 347°
2026-04-24 11:48 -2.76432 11.38585 39915 ft 500 kts 347°
2026-04-24 11:49 -2.69657 11.36937 39915 ft 500 kts 347°
2026-04-24 11:49 -2.62890 11.35292 39911 ft 500 kts 347°
2026-04-24 11:50 -2.56123 11.33647 39910 ft 499 kts 347°
2026-04-24 11:50 -2.49370 11.32007 39912 ft 499 kts 347°
2026-04-24 11:51 -2.42664 11.30377 39912 ft 499 kts 347°
2026-04-24 11:51 -2.35911 11.28736 39910 ft 500 kts 347°
2026-04-24 11:52 -2.29146 11.27092 39913 ft 500 kts 347°
2026-04-24 11:52 -2.22371 11.25446 39914 ft 499 kts 348°
2026-04-24 11:53 -2.15682 11.23821 39914 ft 496 kts 348°
2026-04-24 11:53 -2.08959 11.22189 39915 ft 496 kts 348°
2026-04-24 11:54 -2.02255 11.20561 39915 ft 496 kts 348°
2026-04-24 11:54 -1.95542 11.18931 39915 ft 496 kts 348°
2026-04-24 11:55 -1.88836 11.17302 39919 ft 496 kts 348°
2026-04-24 11:55 -1.82186 11.15687 39917 ft 491 kts 348°
2026-04-24 11:56 -1.75542 11.14073 39919 ft 487 kts 348°
2026-04-24 11:56 -1.68993 11.12484 39919 ft 487 kts 348°
2026-04-24 11:57 -1.62409 11.10887 39925 ft 487 kts 348°
2026-04-24 11:57 -1.55812 11.09286 39924 ft 487 kts 348°
2026-04-24 11:58 -1.49225 11.07688 39926 ft 487 kts 348°
2026-04-24 11:58 -1.42618 11.06085 39931 ft 492 kts 348°
2026-04-24 11:59 -1.35972 11.04473 39927 ft 495 kts 348°
2026-04-24 11:59 -1.29286 11.02850 39931 ft 494 kts 348°
2026-04-24 12:00 -1.22600 11.01226 39927 ft 494 kts 348°
2026-04-24 12:00 -1.15912 10.99603 39931 ft 494 kts 348°
2026-04-24 12:01 -1.09259 10.97990 39931 ft 495 kts 347°
2026-04-24 12:01 -1.02533 10.96359 39929 ft 498 kts 347°
2026-04-24 12:02 -0.95788 10.94722 39927 ft 499 kts 347°
2026-04-24 12:02 -0.89075 10.93093 39927 ft 499 kts 347°
2026-04-24 12:03 -0.82325 10.91456 39923 ft 498 kts 347°
2026-04-24 12:03 -0.75573 10.89818 39924 ft 498 kts 347°
2026-04-24 12:04 -0.68814 10.88179 39929 ft 502 kts 347°
2026-04-24 12:04 -0.62002 10.86524 39917 ft 504 kts 347°
2026-04-24 12:05 -0.55205 10.84874 39920 ft 504 kts 347°
2026-04-24 12:05 -0.48385 10.83218 39919 ft 504 kts 347°
2026-04-24 12:06 -0.41555 10.81560 39911 ft 504 kts 347°
2026-04-24 12:06 -0.34721 10.79901 39911 ft 505 kts 347°
2026-04-24 12:07 -0.27936 10.78254 39908 ft 504 kts 347°
2026-04-24 12:07 -0.21104 10.76596 39908 ft 504 kts 347°
2026-04-24 12:08 -0.14269 10.74936 39908 ft 505 kts 347°
2026-04-24 12:08 -0.07441 10.73279 39908 ft 505 kts 347°
2026-04-24 12:09 -0.00606 10.71620 39906 ft 505 kts 347°
2026-04-24 12:09 0.06221 10.69961 39906 ft 506 kts 347°
2026-04-24 12:10 0.13017 10.68309 39906 ft 506 kts 347°
2026-04-24 12:11 0.23277 10.65815 39909 ft 506 kts 347°
2026-04-24 12:11 0.30136 10.64148 39908 ft 506 kts 347°
2026-04-24 12:12 0.36978 10.62485 39908 ft 506 kts 347°
2026-04-24 12:12 0.43818 10.60822 39908 ft 505 kts 347°
2026-04-24 12:13 0.50607 10.59173 39908 ft 504 kts 347°
2026-04-24 12:13 0.57425 10.57520 39909 ft 504 kts 347°
2026-04-24 12:14 0.63099 10.56142 39912 ft 501 kts 347°
2026-04-24 12:14 0.69881 10.54492 39915 ft 499 kts 347°
2026-04-24 12:15 0.76595 10.52860 39914 ft 499 kts 347°
2026-04-24 12:15 0.83363 10.51215 39913 ft 501 kts 347°
2026-04-24 12:16 0.90133 10.49572 39909 ft 501 kts 347°
2026-04-24 12:16 0.96911 10.47930 39905 ft 501 kts 347°
2026-04-24 12:17 1.03689 10.46283 39907 ft 501 kts 347°
2026-04-24 12:17 1.10422 10.44648 39903 ft 501 kts 347°
2026-04-24 12:18 1.17199 10.43003 39904 ft 500 kts 347°
2026-04-24 12:18 1.23953 10.41363 39903 ft 499 kts 347°
2026-04-24 12:19 1.30712 10.39723 39903 ft 499 kts 347°
2026-04-24 12:19 1.37459 10.38086 39898 ft 499 kts 347°
2026-04-24 12:20 1.44216 10.36445 39898 ft 499 kts 347°
2026-04-24 12:20 1.50969 10.34806 39893 ft 499 kts 347°
2026-04-24 12:21 1.57672 10.33178 39894 ft 498 kts 347°
2026-04-24 12:21 1.64412 10.31542 39896 ft 498 kts 347°
2026-04-24 12:22 1.71156 10.29905 39894 ft 498 kts 347°
2026-04-24 12:22 1.77867 10.28275 39894 ft 498 kts 347°
2026-04-24 12:23 1.84607 10.26642 39894 ft 498 kts 347°
2026-04-24 12:23 1.91340 10.25004 39892 ft 498 kts 347°
2026-04-24 12:24 1.98091 10.23361 39891 ft 498 kts 347°
2026-04-24 12:24 2.04830 10.21721 39892 ft 498 kts 347°
2026-04-24 12:25 2.11574 10.20082 39897 ft 498 kts 347°
2026-04-24 12:25 2.18261 10.18456 39895 ft 497 kts 347°
2026-04-24 12:26 2.24999 10.16818 39894 ft 497 kts 347°
2026-04-24 12:26 2.31717 10.15185 39900 ft 496 kts 347°
2026-04-24 12:27 2.38434 10.13552 39899 ft 496 kts 347°
2026-04-24 12:27 2.45108 10.11928 39893 ft 496 kts 347°
2026-04-24 12:28 2.51828 10.10294 39892 ft 496 kts 347°
2026-04-24 12:28 2.58552 10.08659 39897 ft 496 kts 347°
2026-04-24 12:29 2.65223 10.07036 39894 ft 496 kts 347°
2026-04-24 12:29 2.71935 10.05403 39898 ft 496 kts 347°
2026-04-24 12:30 2.78652 10.03768 39895 ft 495 kts 347°
2026-04-24 12:30 2.85361 10.02135 39898 ft 496 kts 347°
2026-04-24 12:31 2.92027 10.00513 39896 ft 496 kts 347°
2026-04-24 12:31 2.98733 9.98881 39894 ft 496 kts 347°
2026-04-24 12:32 3.05442 9.97248 39885 ft 496 kts 347°
2026-04-24 12:32 3.12124 9.95620 39884 ft 496 kts 347°
2026-04-24 12:33 3.18832 9.93987 39881 ft 496 kts 347°
2026-04-24 12:33 3.25547 9.92351 39881 ft 497 kts 347°
2026-04-24 12:34 3.32266 9.90715 39879 ft 497 kts 347°
2026-04-24 12:34 3.38994 9.89076 39882 ft 496 kts 347°
2026-04-24 12:35 3.45705 9.87441 39879 ft 496 kts 347°
2026-04-24 12:35 3.52425 9.85803 39879 ft 496 kts 347°
2026-04-24 12:36 3.59143 9.84166 39881 ft 496 kts 347°
2026-04-24 12:36 3.65813 9.82540 39878 ft 496 kts 347°
2026-04-24 12:37 3.72529 9.80903 39878 ft 496 kts 347°
2026-04-24 12:37 3.79257 9.79262 39887 ft 496 kts 347°
2026-04-24 12:38 3.85948 9.77630 39885 ft 497 kts 347°
2026-04-24 12:38 3.92673 9.75990 39884 ft 497 kts 347°
2026-04-24 12:39 4.05949 9.72055 39883 ft 497 kts 341°
2026-04-24 12:40 4.12446 9.69759 39886 ft 497 kts 341°
2026-04-24 12:40 4.18976 9.67434 39890 ft 499 kts 341°
2026-04-24 12:41 4.25530 9.65109 39888 ft 499 kts 341°
2026-04-24 12:41 4.32087 9.62788 39888 ft 499 kts 341°
2026-04-24 12:42 4.38593 9.60486 39886 ft 499 kts 341°
2026-04-24 12:42 4.45150 9.58165 39886 ft 499 kts 341°
2026-04-24 12:43 4.51810 9.56209 39888 ft 498 kts 347°
2026-04-24 12:43 4.58586 9.54681 39889 ft 499 kts 348°
2026-04-24 12:44 4.65375 9.53222 39892 ft 499 kts 348°
2026-04-24 12:44 4.72122 9.51774 39897 ft 499 kts 348°
2026-04-24 12:45 4.78910 9.50308 39895 ft 499 kts 348°
2026-04-24 12:45 4.85701 9.48835 39900 ft 499 kts 348°
2026-04-24 12:46 4.92487 9.47361 39900 ft 498 kts 349°
2026-04-24 12:46 4.99263 9.45891 39902 ft 497 kts 348°
2026-04-24 12:47 5.06003 9.44428 39897 ft 499 kts 348°
2026-04-24 12:47 5.12804 9.42952 39885 ft 499 kts 348°
2026-04-24 12:48 5.19600 9.41476 39886 ft 500 kts 348°
2026-04-24 12:48 5.26398 9.39999 39868 ft 499 kts 348°
2026-04-24 12:49 5.33206 9.38520 39860 ft 500 kts 348°
2026-04-24 12:49 5.40010 9.37041 39861 ft 500 kts 349°
2026-04-24 12:50 5.46765 9.35573 39844 ft 500 kts 349°
2026-04-24 12:50 5.53563 9.34096 39846 ft 500 kts 349°
2026-04-24 12:51 5.60363 9.32617 39841 ft 500 kts 349°
2026-04-24 12:51 5.67165 9.31138 39840 ft 501 kts 348°
2026-04-24 12:52 5.74049 9.30005 39837 ft 501 kts 354°
2026-04-24 12:52 5.80969 9.29166 39837 ft 501 kts 354°
2026-04-24 12:53 5.87864 9.28375 39832 ft 501 kts 354°
2026-04-24 12:53 5.94798 9.27579 39831 ft 501 kts 354°
2026-04-24 12:54 6.01733 9.26777 39843 ft 501 kts 354°
2026-04-24 12:54 6.08647 9.25973 39841 ft 498 kts 354°
2026-04-24 12:55 6.15538 9.25171 39840 ft 497 kts 354°
2026-04-24 12:55 6.22383 9.24504 39839 ft 496 kts 357°
2026-04-24 12:56 6.29280 9.24107 39839 ft 496 kts 358°
2026-04-24 12:56 6.36191 9.23718 39832 ft 497 kts 358°
2026-04-24 12:57 6.43093 9.23287 39835 ft 498 kts 357°
2026-04-24 12:57 6.50009 9.22832 39824 ft 498 kts 357°
2026-04-24 12:58 6.56937 9.22372 39825 ft 499 kts 357°
2026-04-24 12:58 6.63821 9.21916 39814 ft 498 kts 357°
2026-04-24 12:59 6.70741 9.21460 39815 ft 498 kts 357°
2026-04-24 12:59 6.77677 9.21003 39807 ft 498 kts 357°
2026-04-24 13:00 6.83446 9.20622 39807 ft 500 kts 357°
2026-04-24 13:00 6.90382 9.20165 39811 ft 500 kts 357°
2026-04-24 13:01 6.97334 9.19706 39802 ft 500 kts 357°
2026-04-24 13:01 7.04278 9.19248 39799 ft 499 kts 357°
2026-04-24 13:02 7.11227 9.18765 39796 ft 500 kts 355°
2026-04-24 13:02 7.18134 9.17864 39795 ft 501 kts 352°
2026-04-24 13:03 7.25027 9.16815 39799 ft 501 kts 352°
2026-04-24 13:03 7.31899 9.15824 39800 ft 500 kts 353°
2026-04-24 13:04 7.38805 9.14875 39794 ft 500 kts 353°
2026-04-24 13:04 7.45725 9.13939 39795 ft 501 kts 353°
2026-04-24 13:05 7.52631 9.13004 39799 ft 501 kts 353°
2026-04-24 13:05 7.59516 9.12069 39795 ft 502 kts 353°
2026-04-24 13:06 7.66444 9.11127 39792 ft 502 kts 353°
2026-04-24 13:06 7.73367 9.10186 39794 ft 502 kts 353°
2026-04-24 13:07 7.80287 9.09245 39792 ft 502 kts 353°
2026-04-24 13:07 7.87217 9.08302 39790 ft 503 kts 353°
2026-04-24 13:08 7.94156 9.07357 39788 ft 503 kts 352°
2026-04-24 13:08 8.01100 9.06411 39788 ft 503 kts 352°
2026-04-24 13:09 8.11485 9.05001 39783 ft 503 kts 353°
2026-04-24 13:09 8.18437 9.04153 39785 ft 503 kts 353°
2026-04-24 13:10 8.25396 9.03340 39795 ft 503 kts 353°
2026-04-24 13:10 8.32357 9.02518 39787 ft 502 kts 353°
2026-04-24 13:11 8.39304 9.01673 39785 ft 502 kts 353°
2026-04-24 13:11 8.46250 9.00795 39789 ft 503 kts 352°
2026-04-24 13:12 8.53134 8.99822 39791 ft 503 kts 352°
2026-04-24 13:12 8.60073 8.98830 39787 ft 503 kts 352°
2026-04-24 13:13 8.67020 8.97852 39782 ft 502 kts 352°
2026-04-24 13:13 8.73896 8.96893 39794 ft 501 kts 352°
2026-04-24 13:14 8.80848 8.95925 39793 ft 502 kts 352°
2026-04-24 13:14 8.87723 8.94967 39806 ft 501 kts 352°
2026-04-24 13:15 8.94641 8.94003 39805 ft 501 kts 352°
2026-04-24 13:15 9.01554 8.93038 39829 ft 502 kts 352°
2026-04-24 13:16 9.08471 8.92073 39831 ft 502 kts 352°
2026-04-24 13:16 9.15385 8.91107 39847 ft 502 kts 352°
2026-04-24 13:17 9.22310 8.90140 39841 ft 501 kts 352°
2026-04-24 13:17 9.29228 8.89173 39855 ft 502 kts 352°
2026-04-24 13:18 9.36145 8.88206 39854 ft 502 kts 352°
2026-04-24 13:18 9.43038 8.87242 39855 ft 503 kts 352°
2026-04-24 13:19 9.49988 8.86270 39855 ft 503 kts 352°
2026-04-24 13:19 9.56880 8.85305 39857 ft 503 kts 352°
2026-04-24 13:20 9.63815 8.84334 39846 ft 503 kts 352°
2026-04-24 13:20 9.70772 8.83456 39845 ft 503 kts 353°
2026-04-24 13:21 9.77750 8.82702 39834 ft 503 kts 353°
2026-04-24 13:21 9.84720 8.81943 39835 ft 504 kts 353°
2026-04-24 13:22 9.91653 8.81165 39821 ft 504 kts 353°
2026-04-24 13:22 9.98622 8.80372 39821 ft 504 kts 353°
2026-04-24 13:23 10.05584 8.79579 39806 ft 503 kts 353°
2026-04-24 13:23 10.12552 8.78786 39804 ft 504 kts 352°
2026-04-24 13:24 10.19539 8.77991 39790 ft 504 kts 352°
2026-04-24 13:24 10.26465 8.77202 39791 ft 504 kts 352°
2026-04-24 13:25 10.33436 8.76408 39779 ft 504 kts 352°
2026-04-24 13:25 10.40407 8.75613 39780 ft 504 kts 352°
2026-04-24 13:26 10.47383 8.74818 39771 ft 504 kts 352°
2026-04-24 13:26 10.54352 8.74024 39771 ft 503 kts 352°
2026-04-24 13:27 10.61271 8.73234 39763 ft 503 kts 352°
2026-04-24 13:27 10.68226 8.72440 39764 ft 503 kts 352°
2026-04-24 13:28 10.75200 8.71643 39752 ft 503 kts 352°
2026-04-24 13:28 10.82160 8.70848 39752 ft 502 kts 352°
2026-04-24 13:29 10.89050 8.70060 39750 ft 501 kts 352°
2026-04-24 13:29 10.95953 8.69003 39744 ft 500 kts 348°
2026-04-24 13:30 11.02806 8.67687 39746 ft 500 kts 348°
2026-04-24 13:30 11.09660 8.66395 39747 ft 500 kts 348°
2026-04-24 13:31 11.16521 8.65154 39744 ft 500 kts 348°
2026-04-24 13:31 11.23328 8.63943 39743 ft 499 kts 348°
2026-04-24 13:32 11.30179 8.62726 39746 ft 499 kts 348°
2026-04-24 13:32 11.37024 8.61507 39738 ft 499 kts 348°
2026-04-24 13:33 11.43871 8.60286 39741 ft 499 kts 348°
2026-04-24 13:33 11.50712 8.59065 39732 ft 499 kts 348°
2026-04-24 13:34 11.57558 8.57843 39730 ft 499 kts 348°
2026-04-24 13:34 11.64361 8.56627 39730 ft 498 kts 348°
2026-04-24 13:35 11.71190 8.55407 39730 ft 497 kts 348°
2026-04-24 13:35 11.78013 8.54186 39724 ft 497 kts 348°
2026-04-24 13:36 11.84836 8.52966 39722 ft 497 kts 348°
2026-04-24 13:36 11.91655 8.51745 39724 ft 497 kts 348°
2026-04-24 13:37 11.98425 8.50534 39722 ft 496 kts 348°
2026-04-24 13:37 12.05228 8.49323 39724 ft 496 kts 349°
2026-04-24 13:38 12.12105 8.48553 39725 ft 497 kts 353°
2026-04-24 13:38 12.19019 8.48004 39725 ft 497 kts 353°
2026-04-24 13:39 12.25917 8.47400 39722 ft 497 kts 353°
2026-04-24 13:39 12.32769 8.46741 39721 ft 497 kts 352°
2026-04-24 13:40 12.39669 8.46056 39719 ft 497 kts 352°
2026-04-24 13:40 12.46565 8.45371 39722 ft 497 kts 352°
2026-04-24 13:41 12.53414 8.44693 39718 ft 497 kts 352°
2026-04-24 13:41 12.60313 8.44012 39718 ft 497 kts 352°
2026-04-24 13:42 12.67207 8.43331 39719 ft 497 kts 351°
2026-04-24 13:42 12.74108 8.42648 39715 ft 498 kts 351°
2026-04-24 13:43 12.81016 8.41966 39712 ft 498 kts 351°
2026-04-24 13:43 12.87879 8.41286 39717 ft 498 kts 351°
2026-04-24 13:44 12.94783 8.40598 39708 ft 498 kts 351°
2026-04-24 13:44 13.00523 8.40027 39717 ft 498 kts 351°
2026-04-24 13:45 13.07402 8.39344 39705 ft 495 kts 351°
2026-04-24 13:45 13.14262 8.38685 39706 ft 494 kts 351°
2026-04-24 13:46 13.21115 8.38051 39706 ft 494 kts 351°
2026-04-24 13:46 13.27937 8.37420 39702 ft 494 kts 351°
2026-04-24 13:47 13.34794 8.36781 39702 ft 494 kts 351°
2026-04-24 13:47 13.41646 8.36141 39700 ft 493 kts 351°
2026-04-24 13:48 13.48475 8.35502 39697 ft 492 kts 351°
2026-04-24 13:48 13.55252 8.34868 39697 ft 492 kts 351°
2026-04-24 13:49 13.62065 8.34229 39695 ft 492 kts 350°
2026-04-24 13:49 13.68900 8.33589 39697 ft 492 kts 350°
2026-04-24 13:50 13.75724 8.32949 39697 ft 491 kts 350°
2026-04-24 13:50 13.82513 8.32312 39697 ft 490 kts 350°
2026-04-24 13:51 13.89299 8.31673 39697 ft 489 kts 350°
2026-04-24 13:51 13.96043 8.31037 39702 ft 489 kts 350°
2026-04-24 13:52 14.02832 8.30397 39699 ft 489 kts 350°
2026-04-24 13:52 14.09614 8.29758 39707 ft 489 kts 350°
2026-04-24 13:53 14.16409 8.29117 39702 ft 490 kts 350°
2026-04-24 13:53 14.23199 8.28476 39702 ft 490 kts 350°
2026-04-24 13:54 14.29951 8.27839 39702 ft 490 kts 350°
2026-04-24 13:54 14.36747 8.27197 39702 ft 490 kts 350°
2026-04-24 13:55 14.43550 8.26554 39702 ft 490 kts 350°
2026-04-24 13:55 14.50318 8.25914 39699 ft 490 kts 350°
2026-04-24 13:56 14.57110 8.25271 39697 ft 490 kts 350°
2026-04-24 13:56 14.63911 8.24626 39697 ft 490 kts 350°
2026-04-24 13:57 14.70697 8.23983 39697 ft 490 kts 350°
2026-04-24 13:57 14.77501 8.23338 39703 ft 490 kts 350°
2026-04-24 13:58 14.84256 8.22698 39695 ft 491 kts 349°
2026-04-24 13:58 14.91064 8.22051 39695 ft 491 kts 349°
2026-04-24 13:59 14.97877 8.21403 39692 ft 491 kts 349°
2026-04-24 13:59 15.04694 8.20755 39692 ft 491 kts 349°
2026-04-24 14:00 15.11506 8.20108 39695 ft 491 kts 349°
2026-04-24 14:00 15.18320 8.19462 39694 ft 492 kts 349°
2026-04-24 14:01 15.25139 8.18816 39687 ft 492 kts 349°
2026-04-24 14:01 15.31965 8.18169 39689 ft 492 kts 349°
2026-04-24 14:02 15.38750 8.17525 39690 ft 492 kts 349°
2026-04-24 14:02 15.45575 8.16876 39688 ft 492 kts 349°
2026-04-24 14:03 15.52422 8.16225 39692 ft 493 kts 349°
2026-04-24 14:03 15.59239 8.15575 39690 ft 495 kts 349°
2026-04-24 14:04 15.66102 8.14922 39688 ft 495 kts 349°
2026-04-24 14:04 15.72973 8.14268 39688 ft 495 kts 349°
2026-04-24 14:05 15.79840 8.13614 39688 ft 495 kts 349°
2026-04-24 14:05 15.86720 8.12957 39693 ft 495 kts 349°
2026-04-24 14:06 15.93575 8.12304 39689 ft 494 kts 349°
2026-04-24 14:06 16.00379 8.11653 39690 ft 494 kts 349°
2026-04-24 14:07 16.07233 8.10997 39689 ft 494 kts 349°
2026-04-24 14:07 16.14089 8.10341 39688 ft 493 kts 349°
2026-04-24 14:08 16.20934 8.09686 39692 ft 493 kts 349°
2026-04-24 14:08 16.27711 8.09038 39686 ft 491 kts 349°
2026-04-24 14:09 16.34516 8.08386 39684 ft 491 kts 349°
2026-04-24 14:09 16.41319 8.07732 39682 ft 491 kts 349°
2026-04-24 14:10 16.48121 8.07079 39681 ft 491 kts 349°
2026-04-24 14:10 16.54930 8.06424 39686 ft 491 kts 348°
2026-04-24 14:11 16.61694 8.05774 39678 ft 492 kts 348°
2026-04-24 14:12 16.71928 8.04789 39683 ft 492 kts 348°
2026-04-24 14:12 16.78757 8.04131 39679 ft 492 kts 348°
2026-04-24 14:13 16.85553 8.03476 39678 ft 492 kts 348°
2026-04-24 14:13 16.92376 8.02819 39777 ft 493 kts 348°
2026-04-24 14:14 16.99040 8.01477 39778 ft 480 kts 334°
2026-04-24 14:14 17.08280 7.97605 39777 ft 477 kts 330°
2026-04-24 14:15 17.14388 7.94851 39741 ft 478 kts 330°
2026-04-24 14:15 17.20495 7.92103 39718 ft 478 kts 330°
2026-04-24 14:16 17.26619 7.89367 39695 ft 478 kts 330°
2026-04-24 14:17 17.35775 7.85286 39679 ft 478 kts 330°
2026-04-24 14:17 17.44958 7.81186 39682 ft 478 kts 330°
2026-04-24 14:18 17.51086 7.78448 39678 ft 478 kts 330°
2026-04-24 14:18 17.57211 7.75708 39678 ft 478 kts 330°
2026-04-24 14:19 17.63336 7.72968 39678 ft 478 kts 330°
2026-04-24 14:19 17.69423 7.70241 39675 ft 478 kts 330°
2026-04-24 14:20 17.75554 7.67493 39677 ft 478 kts 330°
2026-04-24 14:20 17.81693 7.64739 39678 ft 479 kts 330°
2026-04-24 14:21 17.87774 7.62010 39680 ft 478 kts 330°
2026-04-24 14:21 17.93900 7.59258 39682 ft 479 kts 330°
2026-04-24 14:22 18.00031 7.56501 39679 ft 480 kts 330°
2026-04-24 14:23 18.09250 7.52352 39683 ft 480 kts 330°
2026-04-24 14:23 18.15398 7.49584 39683 ft 480 kts 330°
2026-04-24 14:24 18.21502 7.46832 39682 ft 480 kts 330°
2026-04-24 14:24 18.27646 7.44061 39683 ft 480 kts 330°
2026-04-24 14:25 18.32749 7.41758 39684 ft 479 kts 329°
2026-04-24 14:25 18.39915 7.38521 39683 ft 479 kts 329°
2026-04-24 14:26 18.46038 7.35752 39681 ft 479 kts 329°
2026-04-24 14:26 18.52119 7.33000 39682 ft 479 kts 329°
2026-04-24 14:27 18.58244 7.30226 39685 ft 478 kts 329°
2026-04-24 14:27 18.64364 7.27452 39703 ft 478 kts 329°
2026-04-24 14:28 18.70465 7.24686 39688 ft 476 kts 329°
2026-04-24 14:28 18.76554 7.21922 39688 ft 476 kts 329°
2026-04-24 14:29 18.82611 7.19170 39685 ft 476 kts 329°
2026-04-24 14:29 18.88701 7.16400 39680 ft 476 kts 329°
2026-04-24 14:30 18.93769 7.14094 39686 ft 476 kts 329°
2026-04-24 14:30 19.00844 7.10873 39679 ft 475 kts 329°
2026-04-24 14:31 19.06913 7.08108 39690 ft 473 kts 329°
2026-04-24 14:31 19.12968 7.05346 39695 ft 473 kts 329°
2026-04-24 14:32 19.19014 7.02585 39680 ft 473 kts 329°
2026-04-24 14:32 19.24039 7.00289 39680 ft 473 kts 329°
2026-04-24 14:33 19.31077 6.97072 39683 ft 473 kts 329°
2026-04-24 14:33 19.36101 6.94773 39690 ft 472 kts 329°
2026-04-24 14:34 19.42134 6.92012 39693 ft 471 kts 329°
2026-04-24 14:34 19.48146 6.89256 39689 ft 471 kts 329°
2026-04-24 14:35 19.54172 6.86492 39685 ft 471 kts 329°
2026-04-24 14:35 19.60182 6.83732 39695 ft 471 kts 329°
2026-04-24 14:36 19.66192 6.80971 39688 ft 471 kts 329°
2026-04-24 14:36 19.72169 6.78224 39694 ft 471 kts 329°
2026-04-24 14:37 19.78177 6.75459 39691 ft 471 kts 329°
2026-04-24 14:37 19.84201 6.72685 39696 ft 471 kts 329°
2026-04-24 14:38 19.90227 6.69908 39698 ft 471 kts 329°
2026-04-24 14:38 19.96196 6.67154 39697 ft 471 kts 329°
2026-04-24 14:39 20.02214 6.64376 39708 ft 471 kts 329°
2026-04-24 14:39 20.08229 6.61597 39705 ft 470 kts 329°
2026-04-24 14:40 20.14217 6.58853 39705 ft 471 kts 330°
2026-04-24 14:40 20.20327 6.56280 39705 ft 473 kts 331°
2026-04-24 14:41 20.26458 6.53754 39708 ft 472 kts 331°
2026-04-24 14:41 20.32579 6.51203 39708 ft 472 kts 330°
2026-04-24 14:42 20.38704 6.48625 39712 ft 471 kts 330°
2026-04-24 14:42 20.44765 6.46065 39709 ft 470 kts 330°
2026-04-24 14:43 20.50910 6.43615 39715 ft 472 kts 333°
2026-04-24 14:43 20.57109 6.41292 39714 ft 471 kts 332°
2026-04-24 14:44 20.63200 6.38866 39713 ft 470 kts 331°
2026-04-24 14:44 20.69306 6.36379 39741 ft 469 kts 330°
2026-04-24 14:45 20.75398 6.33880 39717 ft 467 kts 330°
2026-04-24 14:45 20.81457 6.31386 39716 ft 466 kts 330°
2026-04-24 14:46 20.87508 6.28892 39719 ft 466 kts 330°
2026-04-24 14:46 20.93525 6.26409 39719 ft 466 kts 330°
2026-04-24 14:47 20.99571 6.23912 39721 ft 466 kts 330°
2026-04-24 14:47 21.05625 6.21410 39733 ft 465 kts 330°
2026-04-24 14:48 21.11619 6.18931 39726 ft 463 kts 330°
2026-04-24 14:48 21.17631 6.16441 39677 ft 462 kts 330°
2026-04-24 14:48 21.20627 6.15200 39460 ft 462 kts 330°
2026-04-24 14:49 21.23624 6.13957 39236 ft 462 kts 330°
2026-04-24 14:49 21.26627 6.12711 39000 ft 463 kts 330°
2026-04-24 14:49 21.29635 6.11463 38769 ft 463 kts 330°
2026-04-24 14:49 21.32643 6.10215 38548 ft 462 kts 330°
2026-04-24 14:50 21.35645 6.08969 38300 ft 462 kts 330°
2026-04-24 14:50 21.38644 6.07722 38033 ft 463 kts 330°
2026-04-24 14:50 21.41616 6.06487 37771 ft 463 kts 330°
2026-04-24 14:50 21.44625 6.05235 37510 ft 464 kts 330°
2026-04-24 14:51 21.47641 6.03980 37251 ft 465 kts 330°
2026-04-24 14:51 21.50662 6.02723 36992 ft 466 kts 330°
2026-04-24 14:51 21.53690 6.01462 36746 ft 466 kts 330°
2026-04-24 14:51 21.56722 6.00200 36491 ft 467 kts 330°
2026-04-24 14:52 21.59755 5.98935 36242 ft 468 kts 330°
2026-04-24 14:52 21.62794 5.97669 36000 ft 468 kts 330°
2026-04-24 14:52 21.65836 5.96400 35757 ft 469 kts 330°
2026-04-24 14:52 21.68885 5.95127 35543 ft 470 kts 330°
2026-04-24 14:53 21.71936 5.93854 35317 ft 470 kts 330°
2026-04-24 14:53 21.74989 5.92579 35097 ft 470 kts 330°
2026-04-24 14:53 21.78034 5.91307 34859 ft 471 kts 330°
2026-04-24 14:53 21.81088 5.90030 34623 ft 471 kts 330°
2026-04-24 14:54 21.84109 5.88766 34396 ft 472 kts 330°
2026-04-24 14:54 21.87178 5.87482 34172 ft 472 kts 330°
2026-04-24 14:54 21.90240 5.86200 33938 ft 473 kts 330°
2026-04-24 14:54 21.93312 5.84913 33710 ft 473 kts 330°
2026-04-24 14:55 21.95388 5.84043 33544 ft 474 kts 330°
2026-04-24 14:55 21.99464 5.82334 33214 ft 475 kts 330°
2026-04-24 14:55 22.02546 5.81041 32956 ft 475 kts 330°
2026-04-24 14:55 22.05627 5.79749 32733 ft 475 kts 330°
2026-04-24 14:56 22.08723 5.78449 32485 ft 475 kts 330°
2026-04-24 14:56 22.11807 5.77154 32237 ft 476 kts 330°
2026-04-24 14:56 22.14858 5.75871 31995 ft 476 kts 330°
2026-04-24 14:56 22.17950 5.74572 31752 ft 477 kts 330°
2026-04-24 14:57 22.21042 5.73271 31508 ft 476 kts 331°
2026-04-24 14:57 22.24124 5.71975 31284 ft 475 kts 331°
2026-04-24 14:57 22.27188 5.70688 30881 ft 469 kts 331°
2026-04-24 14:57 22.30213 5.69416 30307 ft 464 kts 332°
2026-04-24 14:58 22.33208 5.68154 29664 ft 460 kts 332°
2026-04-24 14:58 22.36186 5.66898 29019 ft 456 kts 333°
2026-04-24 14:58 22.39130 5.65656 28376 ft 452 kts 333°
2026-04-24 14:58 22.42043 5.64427 27751 ft 447 kts 333°
2026-04-24 14:59 22.44926 5.63210 27160 ft 443 kts 333°
2026-04-24 14:59 22.47783 5.62003 26561 ft 439 kts 334°
2026-04-24 14:59 22.50612 5.60807 26002 ft 435 kts 334°
2026-04-24 14:59 22.53420 5.59620 25432 ft 432 kts 334°
2026-04-24 15:00 22.56170 5.58456 24872 ft 428 kts 335°
2026-04-24 15:00 22.58940 5.57283 24302 ft 426 kts 335°
2026-04-24 15:00 22.61692 5.56118 23737 ft 423 kts 335°
2026-04-24 15:00 22.64431 5.54957 23113 ft 421 kts 336°
2026-04-24 15:01 22.67145 5.53808 22507 ft 417 kts 336°
2026-04-24 15:01 22.69838 5.52667 21923 ft 412 kts 336°
2026-04-24 15:01 22.72494 5.51541 21344 ft 408 kts 336°
2026-04-24 15:01 22.75105 5.50434 21007 ft 407 kts 336°
2026-04-24 15:02 22.77763 5.49305 20753 ft 411 kts 336°
2026-04-24 15:02 22.80428 5.48173 20504 ft 411 kts 336°
2026-04-24 15:02 22.83093 5.47052 20253 ft 410 kts 338°
2026-04-24 15:02 22.85856 5.46266 20041 ft 412 kts 350°
2026-04-24 15:03 22.87793 5.46186 19855 ft 415 kts
2026-04-24 15:03 22.91479 5.47285 19543 ft 420 kts 25°
2026-04-24 15:03 22.93833 5.49170 19294 ft 424 kts 43°
2026-04-24 15:03 22.95536 5.51783 19045 ft 428 kts 62°
2026-04-24 15:04 22.96415 5.54867 18798 ft 430 kts 81°
2026-04-24 15:04 22.96366 5.58110 18557 ft 431 kts 99°
2026-04-24 15:04 22.95381 5.61177 18327 ft 431 kts 118°
2026-04-24 15:04 22.93559 5.63745 17986 ft 430 kts 137°
2026-04-24 15:05 22.91095 5.65547 17719 ft 426 kts 157°
2026-04-24 15:05 22.88346 5.66694 17464 ft 423 kts 163°